sat.trackr.live / text

‹ back to catalog

STARLINK-2535

NORAD 48295 · 2021-036V

PAYLOAD ACTIVE UNKNOWN

§ Identity

Operator
Country
US
Launch date
2021-04-29
Launch site
AFETR
Launch vehicle
Mass (kg)
RCS (m²)

Purposes: comms

External: N2YO · Heavens-Above · Gunter

§ Orbital elements

Epoch: 2026-09-19T16:30:14.242176Z

Period
94.01 min
Inclination
53.1594°
Eccentricity
0.0001023
Mean motion
15.31701045 rev/d
Perigee alt
470.0 km
Apogee alt
471.4 km
Semi-major
6,848.9 km
B*
-4.4560e-6
RAAN
252.6912°
Arg perigee
88.0287°
Mean anomaly
272.0832°
Rev number
29,813

§ Raw data

STARLINK-25351 48295U 21036V   26262.68766484 -.00000503  00000+0 -44560-5 0  99902 48295  53.1594 252.6912 0001023  88.0287 272.0832 15.31701045298137

JSON: /api/v1/satellites/48295 · /tle

For live sub-satellite position, see the globe view (requires WebGL).

§ Visibility from observer

Set your observer location to see the next 7 days of passes ≥ 10°. The values pass through the URL so the page stays shareable.

No JS? Fill the form by hand. The geolocation button needs JavaScript.